Location: Sungai Jaoh
(2.9167°N, 113.9167°E)
Time: 15:06:34
(UTC+00:00)

Cosmos 1844 - Pass Details

Date: 30 November 2020
Orbit: 821 x 869 km, 70.9° (Epoch: 25 January)

Event Time Altitude Azimuth Distance (km) Brightness Sun altitude
Rises 20:57:00 0° 209° (SSW) 3,366 6.8 -18.8°
Reaches altitude 10° 20:59:33 10° 215° (SW) 2,426 6.0 -18.2°
Maximum altitude 21:04:46 43° 285° (WNW) 1,142 3.9 -17.0°
Drops below altitude 10° 21:09:58 10° 356° (N) 2,406 5.8 -15.8°
Sets 21:12:30 0° 3° (N) 3,337 6.6 -15.2°
